Preview of NWS' New Version of Forecast
This preview is not operational and should not be used for support decisions.

Regional Weather Roundup (RWR)

Issued by Mobile/Pensacola (MOB)

                            
816 
ASUS44 KMOB 212312
RWRMOB
REGIONAL WEATHER ROUNDUP
NATIONAL WEATHER SERVICE MOBILE AL
600 PM CDT THU JUN 21 2018

NOTE: "FAIR" INDICATES FEW OR NO CLOUDS BELOW 12,000 FEET WITH NO
      SIGNIFICANT WEATHER AND/OR OBSTRUCTIONS TO VISIBILITY.

  * THESE STATIONS ARE PART OF THE UNIVERSITY OF SOUTH ALABAMA 
    MESONET AND ARE NOT UNDER NWS OR FAA QUALITY CONTROL. 

ALZ061>064-220000-
COASTAL ALABAMA
  
CITY           SKY/WX    TMP DP  RH WIND       PRES   REMARKS
MOBILE REG APT CLOUDY    74  71  91 CALM      29.92F                  
BROOKLEY FIELD LGT RAIN  77  75  93 W6        29.92F FOG              
USA CAMPUS*    NOT AVBL                                               
DOG RIVER*       N/A     75  73  94 SW6         N/A                   

  
CITY           SKY/WX    TMP DP  RH WIND       PRES   REMARKS
GULF SHORES    FAIR      84  74  71 MISG      29.90F                  

$$

ALZ051>060-220000-
INTERIOR SOUTHWEST AND SOUTH CENTRAL ALABAMA
  
CITY           SKY/WX    TMP DP  RH WIND       PRES   REMARKS
GREENVILLE     PTSUNNY   83  76  79 CALM      29.88R THUNDER          
EVERGREEN      PTSUNNY   86  72  62 CALM      29.87S                  
ATMORE*          N/A    N/A N/A N/A NW10      30.62R                  
ANDALUSIA/OPP  FAIR      88  75  65 CALM      29.89R HX  97           
ANDALUSIA*       N/A     84  75  74 W3        29.89S                  
FLORALA APT    FAIR      89  72  56 SW5       29.90S HX  96           
FLORALA*         N/A     90  73  58 S2        30.54R HX  98           

$$

FLZ001>006-220000-
WESTERN FLORIDA PANHANDLE
  
CITY           SKY/WX    TMP DP  RH WIND       PRES   REMARKS
PENSACOLA      FAIR      87  71  58 SW15      29.90S                  
NAS PENSACOLA  PTSUNNY   85  72  65 SW10      29.90S                  
MILTON         PTSUNNY   85  69  58 W6        29.90R                  
WHTNG S FIELD  CLOUDY    85  70  60 VRB6      29.90R                  

  
CITY           SKY/WX    TMP DP  RH WIND       PRES   REMARKS
JAY*             N/A     86  70  58 SW10        N/A                   
DUKE FIELD     PTSUNNY   90  66  45 SW15      29.89S                  
CRESTVIEW      FAIR      90  68  48 SW10      29.90S                  
VALPARAISO     PTSUNNY   87  72  59 SW12      29.90R                  
DESTIN         FAIR      87  73  62 W8G17     29.91R                  

$$

MSZ076-079-220000-
INTERIOR SOUTHEAST MISSISSIPPI
  
CITY           SKY/WX    TMP DP  RH WIND       PRES   REMARKS
LEAKESVILLE*   NOT AVBL                                               
AGRICOLA*        N/A     73  73 100 CALM      29.90F                  

$$

MARINE OBSERVATIONS
  
STATION/POSITION TIME  TEMP    WIND        PRES    WAVE
                       AIR SEA DIR/SP/G            HT/PER
                 (UTC) (F)     (DEG/KT/KT) (MB)    (FT/S)
PETIT BOIS ISLND 2248   85     230/ 14/ 17 1013.1F
GRAND BAY        2145   86     230/ 12     1014.0S
KATRINA CUT      2230   85     240/ 16     1012.9S
CEDAR POINT      2230   85     230/ 15     1012.5S
E DAUPHIN ISLAND 2300   85     240/  9/ 13 1012.4F
MIDDLE BAY LIGHT 2230   85     240/ 14     1013.2R
USCG MOBILE BAY  2248   76 86  300/  5/  8 1012.9F
STATE DOCKS      2236   77 85              1013.0F
MEAHER PARK      2230   78     290/ 15     1013.2R
WEEKS BAY        2145   86                 1013.0S
FORT MORGAN      2248   85     250/ 15/ 18   N/A
12 S ORANGE BCH  2250   85     250/ 16/ 17 1012.8F   3/ 4
PENSACOLA BAY    2236   86 87  230/ 10/ 16 1012.8R
64 S DAUPHIN ISL 2250      87  250/ 10/ 14 1013.5F   2/ 7

$$

SELECTED LOCATIONS ACROSS THE REGION
  
CITY           SKY/WX    TMP DP  RH WIND       PRES   REMARKS
NEW ORLEANS    PTSUNNY   88  76  67 SW7       29.89F HX  99           
GULFPORT       FAIR      80  72  76 NE5       29.89F                  
PASCAGOULA AP  FAIR      79  74  84 N5        29.90F                  
PASCAGOULA*      N/A     81  75  83 CALM      29.90S                  
HATTIESBURG    FAIR      78  76  93 S6        29.90F                  
LAUREL         FAIR      76  75  97 S5        29.90F                  
MERIDIAN       FAIR      85  74  69 SW13      29.86F                  
JACKSON        PTSUNNY   87  75  67 SW10      29.85F HX  96           
MONTGOMERY     CLOUDY    79  74  84 W6        29.88R                  
TROY           FAIR      79  74  84 SW5       29.89S                  
ASHFORD*         N/A     84  75  74 W3        29.89S                  
DOTHAN         FAIR      87  70  56 SW10      29.92R                  
PANAMA CITY    PTSUNNY   87  74  64 SW15      29.90R HX  95           

$$